This demonstration page uses our WeatherBlox Daily Observations layout. Learn more.

Left ArrowRight Arrow

Hourly Observations for July 27, 2017

Temp ( °F °C ) Dew Point ( °F °C ) Humidity (%) Winds ( mph kmh ) Pressure ( in mb ) Visibility ( mi km ) Precip ( " mm )
12:53 am 00:53 Clear with Mist and Fog 71 21.7 69 20.6 94 94 NE 6 9 30.02 1017 4 6 0.00 0.00
1:53 am 01:53 Mostly Clear with Mist and Fog 72 22.2 69 20.6 91 91 NNE 7 11 30.03 1017 5 8 0.00 0.00
2:39 am 02:39 Mostly Cloudy with Mist and Fog 72 22.2 70 21.1 94 94 N 9 15 30.03 1017 5 8 0.00 0.00
2:53 am 02:53 Mostly Cloudy with Mist and Fog 72 22.2 69 20.6 91 91 NNE 9 15 30.02 1017 5 8 0.00 0.00
3:09 am 03:09 Partly Cloudy with Mist and Fog 71 21.7 69 20.6 94 94 N 9 15 30.00 1016 5 8 0.00 0.00
3:19 am 03:19 Partly Cloudy with Mist and Fog 71 21.7 69 20.6 94 94 NNE 12 19 30.00 1016 5 8 0.00 0.00
3:53 am 03:53 Mostly Cloudy 71 21.7 68 20 90 90 NNE 9 15 30.03 1017 7 11 0.00 0.00
4:04 am 04:04 Mostly Cloudy 70 21 68 20 94 94 NNE 9 15 30.03 1017 8 13 0.00 0.00
4:40 am 04:40 Mostly Cloudy 70 21 66 19 88 88 NNE 9 15 30.03 1017 8 13 0.00 0.00
4:53 am 04:53 Mostly Cloudy 69 20.6 67 19.4 93 93 NNE 8 13 30.04 1017 9 14 0.00 0.00
5:02 am 05:02 Partly Cloudy 70 21 66 19 88 88 NNE 10 17 30.03 1017 10 16 0.00 0.00
5:53 am 05:53 Mostly Clear 68 20 64 17.8 87 87 NNE 8 13 30.06 1018 10 16 0.00 0.00
6:53 am 06:53 Mostly Sunny 67 19.4 63 17.2 87 87 NE 8 13 30.07 1018 10 16 0.00 0.00
7:53 am 07:53 Sunny 68 20 63 17.2 84 84 NE 8 13 30.09 1019 10 16 0.00 0.00
8:53 am 08:53 Sunny 70 21.1 63 17.2 79 79 NE 8 13 30.09 1019 10 16 0.00 0.00
9:53 am 09:53 Sunny 73 22.8 63 17.2 71 71 NE 9 15 30.09 1019 10 16 0.00 0.00
10:53 am 10:53 Sunny 75 23.9 65 18.3 71 71 NE 10 17 30.09 1019 10 16 0.00 0.00
11:53 am 11:53 Partly Cloudy 77 25 64 17.8 64 64 NNE 10 17 30.09 1019 10 16 0.00 0.00
12:53 pm 12:53 Sunny 78 25.6 63 17.2 60 60 N 6 9 30.08 1019 10 16 0.00 0.00
1:53 pm 13:53 Sunny 79 26.1 63 17.2 58 58 NE 9 15 30.05 1018 10 16 0.00 0.00
2:53 pm 14:53 Sunny 81 27.2 63 17.2 54 54 NE 6 9 30.05 1018 10 16 0.00 0.00
3:53 pm 15:53 Sunny 81 27.2 61 16.1 51 51 NNE 7 11 30.04 1017 10 16 0.00 0.00
4:53 pm 16:53 Sunny 81 27.2 59 15 47 47 N 5 7 30.02 1017 10 16 0.00 0.00
5:53 pm 17:53 Mostly Cloudy 80 26.7 64 17.8 58 58 ENE 10 17 30.01 1016 10 16 0.00 0.00
6:53 pm 18:53 Sunny 79 26.1 61 16.1 54 54 E 8 13 30.00 1016 10 16 0.00 0.00
7:53 pm 19:53 Sunny 77 25 63 17.2 62 62 ENE 7 11 30.00 1016 10 16 0.00 0.00
8:53 pm 20:53 Sunny 73 22.8 64 17.8 74 74 E 6 9 30.01 1016 10 16 0.00 0.00
9:53 pm 21:53 Clear 71 21.7 63 17.2 76 76 E 7 11 30.03 1017 10 16 0.00 0.00
10:53 pm 22:53 Clear 71 21.7 63 17.2 76 76 E 5 7 30.03 1017 10 16 0.00 0.00
11:53 pm 23:53 Clear 68 20 63 17.2 84 84 E 3 6 30.04 1017 10 16 0.00 0.00

Powered by AerisWeather